Regional Weather Roundup
Issued by NWS Kansas City/Pleasant Hill, MO

Home | Current Version | Previous Version | Graphics & Text | Print | Product List | Glossary Off
Versions: 1 2 3 4 5 6 7 8 9 10 11 12 13 14 15 16 17 18 19 20 21 22 23 24 25 26 27 28 29 30 31 32 33 34 35 36 37 38 39 40 41 42 43 44 45 46 47 48 49 50

199
ASUS43 KEAX 220111
RWREAX

WEATHER ROUNDUP FOR EASTERN KANSAS AND NORTHWEST MISSOURI
NATIONAL WEATHER SERVICE KANSAS CITY/PLEASANT HILL MO
800 PM CDT THU MAY 21 2015

KSZ040-057-103>105-MOZ028-029-037-043-220200-
...KANSAS CITY METROPOLITAN AREA...

CITY           SKY/WX    TMP DP  RH WIND       PRES   REMARKS
K.C. INTL      PTCLDY    64  46  52 W5        30.19S
K.C. DOWNTOWN  CLEAR     66  41  40 W3        30.18S
LEES SUMMIT    LGT RAIN  64  45  49 CALM      30.19F
OLATHE - IXD   CLEAR     63  43  48 N5        30.20S
OLATHE - OJC   CLEAR     64  43  46 N3        30.19S
LAWRENCE       CLEAR     66  41  40 CALM      30.19S

$$

MOZ001>008-011>017-020>025-030>033-038>040-044>046-053-054-220200-
...NORTHERN AND CENTRAL MISSOURI...

CITY           SKY/WX    TMP DP  RH WIND       PRES   REMARKS
ST. JOSEPH     CLEAR     66  45  46 W3        30.18S
MOSBY          CLEAR     64  43  45 SW3       30.18S
WARRENSBURG    PTCLDY    63  43  48 CALM      30.19S
WHITEMAN AFB   PTCLDY    63  46  54 W2        30.18S
CLINTON        PTCLDY    64  46  52 CALM      30.21R
SEDALIA        CLEAR     64  46  52 W3        30.20S
WARSAW         NOT AVBL
CHILLICOTHE      N/A     67  46  47 VRB3      30.17S
KIRKSVILLE     CLEAR     64  48  56 SW6       30.14S

$$

MOZ041-047>049-056>058-063>065-088>090-097-220200-
...EASTERN AND SOUTHERN MISSOURI...

CITY           SKY/WX    TMP DP  RH WIND       PRES   REMARKS
ST. LOUIS INTL PTCLDY    62  42  47 W6        30.17R
SPIRIT OF STL  PTCLDY    60  48  64 CALM      30.16S
COLUMBIA       CLEAR     62  44  51 W7        30.18S
JEFFERSON CITY CLEAR     64  42  44 W3        30.18S
ROLLA          CLEAR     56  44  64 W3        30.18S
OSAGE BEACH    CLEAR     57  45  62 CALM      30.20S
SPRINGFIELD    CLEAR     60  42  51 N5        30.20S
BRANSON        CLEAR     59  46  63 CALM      30.21S
JOPLIN         CLEAR     59  47  64 VRB6      30.21S
WEST PLAINS    PTCLDY    57  43  59 CALM      30.21R

$$

IAZ060-094-KSZ022-034>040-054-083-096-NEZ052-066-093-220200-
...KANSAS...SOUTHEAST NEBRASKA AND IOWA...

CITY           SKY/WX    TMP DP  RH WIND       PRES   REMARKS
TOPEKA         CLEAR     66  42  41 SE3       30.20S
MANHATTAN      CLEAR     64  43  46 SE6       30.19S
EMPORIA        CLEAR     60  43  53 E5        30.20S
CHANUTE        PTCLDY    59  48  67 S5        30.21R
WICHITA        MOCLDY    61  44  53 SE8       30.20R
OMAHA          PTCLDY    70  39  32 W6        30.14S
LINCOLN        CLEAR     67  38  34 SW6       30.18S
FALLS CITY     CLEAR     65  43  44 W6        30.17S
LAMONI         CLEAR     68  46  45 W9        30.13S
DES MOINES     PTCLDY    70  38  31 W9        30.08R

$$




USA.gov is the U.S. government's official web portal to all federal, state and local government web resources and services.